User: anonymous   Login
Location: Oshawa
(43.9000°N, 78.8670°W)
Time: 03:23:04
(UTC-05:00)
Language:

PAYLOAD A - Orbit

View from above orbital plane
View from above orbital plane
View from above satellite
View from above satellite

Ground track
Ground track

The orbit data is extracted from the following two-line orbital elements,

1 27840U 03031A   15026.09935220  .00000034  00000-0  24220-4 0  7542
2 27840 098.2180 050.5893 0097708 230.3339 224.3886 14.38769320607767
Epoch (UTC): 26 January 2015 02:23:04
Eccentricity: 0.0097708
inclination: 98.2180°
perigee height: 693 km
apogee height: 832 km
right ascension of ascending node: 50.5893°
argument of perigee: 230.3339°
revolutions per day: 14.38769320
mean anomaly at epoch: 224.3886°
orbit number at epoch: 60776

The dashed part of the orbit path shows where the satellite is in the earth's shadow,  

DLR